Location: Holcomb Observatory
(44.4922°N, 73.1654°W)
Time: 16:06:06
(UTC-04:00)

Daily predictions for brighter satellites

Satellite Brightness Start Highest point End
(mag) Time Altitude Azimuth Time Altitude Azimuth Time Altitude Azimuth
Cosmos 1943 Rocket 4.2 20:55:29 10° N 20:58:44 16° NE 21:02:00 10° E
Cosmos 1302 Rocket 4.2 20:54:11 10° NNW 20:59:26 76° WSW 21:04:40 10° SSE
deb Chang Zheng 4 3.6 20:55:16 10° NNE 20:59:39 63° ESE 21:03:59 10° S
Cosmos 1943 4.4 20:56:20 10° SSE 21:00:38 23° E 21:05:00 10° NE
SL-8 R/B 4.5 20:59:47 10° W 21:04:33 54° N 21:09:18 10° ENE
ATLAS 3B R/B 3.8 20:58:54 10° SSE 21:05:04 27° ESE 21:11:09 10° NE
H-2A R/B 2.2 21:04:14 10° SSE 21:08:30 84° WSW 21:12:55 10° NNW
H-2A R/B 4.4 21:05:02 10° SSW 21:08:42 36° W 21:12:24 10° NNW
Cosmos 2034 Rocket 4.1 21:04:16 10° N 21:10:42 87° E 21:17:02 10° S
DEBRIS 3.5 21:07:38 10° WNW 21:13:36 45° SW 21:16:01 10° SSE
Cosmos 1626 Rocket 3.5 21:12:20 10° S 21:16:46 78° E 21:21:11 10° NNE
GRACE-1 3.9 21:15:46 10° N 21:18:37 64° E 21:21:28 10° S
Cosmos 2228 3.7 21:14:21 10° NNW 21:18:41 57° W 21:23:00 10° S
GRACE-2 3.9 21:16:12 10° N 21:19:05 64° E 21:21:54 10° S
USA 234 3.6 21:17:06 10° ESE 21:23:35 65° NNE 21:30:05 10° NW
ERS-1 Rocket 3.7 21:19:50 10° S 21:24:42 52° W 21:29:38 10° NNW
ISS -3.0 21:21:54 10° SW 21:25:01 44° SE 21:28:09 10° ENE
UNK 4.5 21:22:16 10° NNE 21:27:34 51° ESE 21:33:06 10° S
ALOS 4.4 21:27:23 10° SSW 21:31:10 24° W 21:34:58 10° NW
PSLV R/B 3.8 21:29:45 10° WSW 21:33:06 41° S 21:36:20 11° E
Lacrosse 4 Rocket 2.6 21:30:12 11° SSE 21:33:12 22° ESE 21:36:23 10° ENE
Nimbus 7 Rocket 4.4 21:27:43 10° NNE 21:33:43 87° ESE 21:39:37 10° SSW
Envisat 3.1 21:29:11 10° S 21:34:16 81° WSW 21:39:23 10° NNW
ARGOS 3.7 21:32:56 13° SE 21:37:31 45° ENE 21:42:40 10° N
Cosmos 407 Rocket 4.4 21:33:05 10° SSE 21:37:37 30° E 21:42:07 10° NE
SPOT 5 2.7 21:34:37 10° SSE 21:39:02 81° WSW 21:43:22 10° NNW
CZ-2C R/B 3.6 21:38:38 10° WSW 21:39:32 12° W 21:40:26 10° WNW
Cosmos 2369 Rocket 2.3 21:36:39 10° NNW 21:42:19 65° ENE 21:46:52 16° SE
Cosmos 1238 4.1 21:42:36 10° S 21:45:42 86° W 21:48:45 10° N
CZ-4 SHROUD 4.1 21:43:58 10° S 21:47:02 47° W 21:50:07 10° NNW
Lacrosse 5 4.4 21:47:09 10° NW 21:50:53 20° N 21:54:39 10° NE
MetOp-B 4.2 21:45:59 11° SSE 21:51:06 85° WSW 21:56:31 10° NNW
Terra 3.2 21:48:14 14° ESE 21:51:16 26° ENE 21:55:11 10° N
SL-16 R/B 4.5 21:48:14 10° WSW 21:53:01 28° NW 21:57:51 10° N
NOAA 11 4.3 21:53:20 17° SSE 21:57:28 60° ENE 22:02:49 10° N
USA 81 4.0 21:57:36 10° N 22:02:55 88° E 22:07:22 15° S
Atlas Centaur 2 3.8 21:58:57 10° SW 22:05:19 29° S 22:09:41 19° SE
Cosmos 1992 Rocket 4.4 22:03:38 10° NNW 22:08:47 60° WSW 22:12:51 16° S
Cosmos 1758 Rocket 3.7 22:06:49 20° SSE 22:09:40 55° E 22:13:56 10° NNE
CZ-4C R/B 3.6 22:07:53 24° SE 22:10:18 60° ENE 22:14:17 10° N
Cosmos 2263 4.2 22:05:05 10° NNW 22:10:44 78° ENE 22:14:26 22° SSE
CARTOSAT-1 4.3 22:11:13 23° SE 22:13:23 39° ENE 22:17:25 10° N
DELTA 2 DEB (DPAF) 4.2 22:11:56 24° SSE 22:14:37 69° ENE 22:19:06 10° N
Cosmos 1900 4.5 22:12:10 10° SSW 22:17:11 55° ESE 22:22:13 10° NE
COSMOS 2406 4.3 22:15:40 22° SE 22:17:23 25° ESE 22:21:57 10° NE
YAOGAN 6 3.4 22:17:10 18° SSW 22:19:43 48° W 22:23:22 10° NNW
Meteor 1-22 Rocket 4.3 22:15:07 10° NNW 22:20:44 85° WSW 22:24:50 20° S
Cosmos 1066 Rocket 4.4 22:16:45 10° SSW 22:22:27 78° W 22:28:19 10° N
SeaSat 1 3.6 22:21:31 15° S 22:25:10 36° WSW 22:29:43 10° NW
Geosat 4.1 22:20:36 10° NE 22:25:31 52° ESE 22:28:49 20° S
Cosmos 1953 3.0 22:22:21 10° N 22:26:07 38° ENE 22:27:23 29° ESE
Cosmos 1825 Rocket 4.2 22:22:21 10° SSW 22:26:44 57° W 22:31:07 10° N
Lacrosse 5 rocket 4.4 22:25:33 10° NW 22:28:09 16° N 22:30:50 10° NNE
H-2A R/B 2.1 22:26:31 27° SE 22:29:08 61° ENE 22:34:09 10° N
Cosmos 1190 Rocket 4.2 22:27:09 10° SSW 22:32:27 74° WNW 22:37:47 10° NNE
CZ-4B R/B 4.3 22:29:49 10° N 22:34:44 52° WNW 22:39:46 10° SW
COSMOS 2455 3.9 22:31:08 10° SW 22:36:54 47° NW 22:42:43 10° NNE
SPOT 1/Viking Rocket 4.4 22:34:19 16° SSW 22:38:09 44° W 22:43:05 10° NNW
Cosmos 1842 Rocket 4.5 22:34:28 10° N 22:38:30 35° ENE 22:39:50 28° ESE
SAR-Lupe-2 3.4 22:40:04 45° SSE 22:41:06 84° ENE 22:44:42 10° NNW
Cosmos 1943 Rocket 2.1 22:37:51 10° NNW 22:43:26 79° ENE 22:46:09 32° SSE
Cosmos 1943 3.8 22:38:41 10° SW 22:44:15 57° WNW 22:49:53 10° NNE
Cosmos 1346 Rocket 3.7 22:41:40 15° SSW 22:44:42 46° WNW 22:48:31 10° N
SL-8 R/B 4.0 22:42:42 10° WNW 22:47:32 66° NNE 22:50:59 19° E
Cosmos 676 Rocket 4.0 22:44:54 16° SSW 22:49:16 86° WNW 22:54:39 10° NNE
Cosmos 1140 Rocket 3.7 22:48:29 34° SSE 22:50:23 49° ESE 22:55:27 10° NNE
Nadezhda 4 Rocket 4.2 22:47:43 29° SSE 22:50:50 56° E 22:57:01 10° NNE
Spot 2 4.3 22:48:45 10° NNE 22:53:34 73° ESE 22:55:50 33° S
ATLAS 3B R/B 3.1 22:47:31 10° SW 22:55:14 76° NW 23:02:45 10° NE
Cosmos 1842 3.3 22:54:29 37° SSW 22:55:57 76° W 22:59:53 10° N
DMSP B5D2-2 4.0 22:51:08 10° NNE 22:56:27 74° ESE 22:58:58 32° S
Cosmos 1656 Rocket 4.2 22:50:53 10° NNW 22:56:28 51° ENE 22:59:05 29° ESE
IGS 5A 3.4 22:58:19 43° S 22:59:35 79° WSW 23:03:47 10° NNW
ISS -1.7 22:58:28 10° W 23:01:31 36° NNW 23:04:36 10° NE
Cosmos 2084 3.3 23:01:41 10° NW 23:05:49 84° SW 23:06:47 53° SSE
USA 234 3.8 23:03:51 28° S 23:06:46 43° SW 23:12:58 10° WNW
Lacrosse 4 Rocket 2.8 23:07:57 10° WSW 23:11:43 36° NW 23:15:32 10° NNE
Cosmos 1758 3.6 23:08:31 10° NNW 23:12:36 63° W 23:13:37 45° SSW
CZ-4C R/B 3.5 23:13:38 22° ESE 23:13:38 22° ESE 23:17:36 10° ENE
Cosmos 614 Rocket 4.1 23:16:09 44° SSE 23:17:19 54° ESE 23:22:24 10° NNE
COSMOS 2487 3.7 23:18:18 31° ENE 23:18:18 31° ENE 23:20:50 10° NE
Cosmos 1733 4.0 23:14:05 10° N 23:17:43 37° ENE 23:17:55 36° E
Spot 4 4.1 23:17:06 38° SSW 23:18:43 60° W 23:23:28 10° NNW
Meteor 2-5 Rocket 4.2 23:17:29 37° SE 23:19:10 48° E 23:24:43 10° NNE
Cosmos 2221 3.5 23:16:40 10° N 23:20:34 32° ENE 23:21:11 31° E
SL-27 R/B 3.0 23:20:32 43° WSW 23:21:07 50° WNW 23:24:24 10° N
Cosmos-2242 4.1 23:19:20 10° NNW 23:23:27 39° W 23:24:56 29° SW
Cosmos 2369 Rocket 4.1 23:21:51 10° NW 23:25:45 19° W 23:28:41 13° SW
Terra 2.8 23:27:07 29° SW 23:28:49 38° W 23:33:17 10° NNW
Cosmos 2026 Rocket 4.4 23:28:52 36° SE 23:30:35 45° E 23:36:19 10° NNE
Cosmos 1607 3.8 23:29:24 33° SSW 23:32:21 72° ESE 23:38:33 10° NE
USA 238 DEB 3.7 23:28:44 14° SW 23:35:02 89° WNW 23:42:09 10° NE
USA 238 3.7 23:28:57 14° SW 23:35:08 90° SE 23:42:15 10° NE
Lacrosse 5 4.0 23:31:15 10° NW 23:35:22 24° NNE 23:39:28 10° ENE
Cosmos 2208 Rocket 4.3 23:34:21 10° NNW 23:39:25 57° WSW 23:40:44 44° SSW
IKONOS-2 4.3 23:42:42 70° S 23:43:10 86° WSW 23:47:28 10° NNW
CZ-4B R/B 3.0 23:44:03 29° ENE 23:44:05 29° ENE 23:47:20 10° N
Okean 3 Rocket 3.4 23:43:49 69° SSE 23:44:18 82° E 23:48:45 10° N
Cosmos 1470 2.7 23:41:13 10° NNW 23:45:07 75° W 23:45:11 75° WSW
Meteor 1-16 Rocket 4.3 23:42:41 10° N 23:48:18 69° ENE 23:49:54 47° SE
Cosmos 1340 2.6 23:51:21 78° WNW 23:51:21 78° WNW 23:55:06 10° N
CZ-4C R/B 3.7 23:54:17 44° NNE 23:54:17 44° NNE 23:56:47 10° N
